Kuala Lumpur, Malaysia

3:52 PM +08 on July 25, 2017 (GMT +0800)
Kuala Lumpur International -Sepang

Weather History for WMKK - October, 2012

Change the Weather History Date:

Saturday, October 13, 2012

  Actual Average Record
Temperature  
Mean Temperature 78 °F -  
Max Temperature 82 °F - - ()
Min Temperature 73 °F - - ()
Cooling Degree Days 12    
Growing Degree Days 28 (Base 50)    
Moisture  
Dew Point 75 °F    
Average Humidity 91    
Maximum Humidity 100    
Minimum Humidity 84    
Precipitation  
Precipitation 0.24 in - - ()
Sea Level Pressure  
Sea Level Pressure 29.84 in    
Wind  
Wind Speed 2 mph ()    
Max Wind Speed 7 mph    
Max Gust Speed -    
Visibility 5.6 miles    
Events Rain , Thunderstorm    
T = Trace of Precipitation, MM = Missing Value Source: Averaged Metar Reports

Daily Weather History Graph

Daily Weather History Graph

Search for Another Location

Airport or City:

Trip Planner

Search our weather history database for the weather conditions in past years. The results will help you decide how hot, cold, wet, or windy it might be!

Date:

Astronomy

Oct. 13, 2012 Rise Set
Actual Time 6:58 AM +08 7:01 PM +08
Civil Twilight 6:37 AM +08 7:22 PM +08
Nautical Twilight 6:13 AM +08 7:46 PM +08
Astronomical Twilight 5:49 AM +08 8:10 PM +08
Moon 4:41 AM +08 (10/13) 5:05 PM +08 (10/13)
Length of Visible Light 12h 44m
Length of Day
12h 03m
Waning Crescent, 7% of the Moon is Illuminated
Oct 13
Waning Crescent
Oct 15
New
Oct 22
First Quarter
Oct 30
Full
Nov 7
Last Quarter

Hourly Weather History & Observations

Time (+08) Temp. Heat Index Dew Point Humidity Pressure Visibility Wind Dir Wind Speed Gust Speed Precip Events Conditions
12:00 AM 77.0 °F - 75.2 °F 94% 29.86 in 6.2 mi North 1.2 mph - N/A   Mostly Cloudy
12:30 AM 78.8 °F - 75.2 °F 89% 29.83 in 6.2 mi North 2.3 mph - N/A   Mostly Cloudy
1:00 AM 77.0 °F - 75.2 °F 94% 29.83 in 6.2 mi North 3.5 mph - N/A   Mostly Cloudy
1:30 AM 77.0 °F - 75.2 °F 94% 29.83 in 6.2 mi North 3.5 mph - N/A   Mostly Cloudy
2:00 AM 78 °F - 77 °F 95% 29.83 in 5 mi North 1.2 mph - -   Haze
2:00 AM 77.0 °F - 75.2 °F 94% 29.80 in 6.2 mi ESE 3.5 mph - N/A   Mostly Cloudy
2:30 AM 77.0 °F - 75.2 °F 94% 29.80 in 6.2 mi NNE 2.3 mph - N/A   Mostly Cloudy
3:00 AM 77.0 °F - 75.2 °F 94% 29.77 in 6.2 mi NNE 4.6 mph - N/A   Mostly Cloudy
3:30 AM 77.0 °F - 73.4 °F 89% 29.77 in 6.2 mi NNE 3.5 mph - N/A   Mostly Cloudy
4:00 AM 77.0 °F - 73.4 °F 89% 29.77 in 6.2 mi NNE 3.5 mph - N/A   Mostly Cloudy
4:30 AM 77.0 °F - 75.2 °F 94% 29.77 in 6.2 mi NNE 1.2 mph - N/A   Mostly Cloudy
5:00 AM 78 °F - 76 °F 94% 29.80 in 4 mi Calm Calm - -   Scattered Clouds
5:00 AM 77.0 °F - 73.4 °F 89% 29.77 in 6.2 mi NE 4.6 mph - N/A   Mostly Cloudy
5:30 AM 77.0 °F - 73.4 °F 89% 29.77 in 6.2 mi NNE 3.5 mph - N/A   Mostly Cloudy
6:00 AM 77.0 °F - 75.2 °F 94% 29.77 in 6.2 mi Calm Calm - N/A   Mostly Cloudy
6:30 AM 77.0 °F - 75.2 °F 94% 29.80 in 6.2 mi Calm Calm - N/A   Mostly Cloudy
7:00 AM 77.0 °F - 75.2 °F 94% 29.80 in 6.2 mi NW 1.2 mph - N/A   Mostly Cloudy
7:30 AM 77.0 °F - 75.2 °F 94% 29.83 in 6.2 mi Calm Calm - N/A   Mostly Cloudy
8:00 AM 79 °F - 77 °F 91% 29.86 in 3 mi North 1.2 mph - -   Haze
8:00 AM 77.0 °F - 75.2 °F 94% 29.83 in 6.2 mi South 2.3 mph - N/A   Mostly Cloudy
8:30 AM 78.8 °F - 75.2 °F 89% 29.86 in 6.2 mi Calm Calm - N/A   Mostly Cloudy
9:00 AM 78.8 °F - 75.2 °F 89% 29.86 in 6.2 mi WSW 3.5 mph - N/A Rain Light Rain
9:30 AM 77.0 °F - 75.2 °F 94% 29.89 in 1.9 mi WNW 6.9 mph - N/A Rain Rain
10:00 AM 75.2 °F - 73.4 °F 94% 29.89 in 1.9 mi West 6.9 mph - N/A Rain , Thunderstorm Thunderstorms and Rain
10:30 AM 73.4 °F - 73.4 °F 100% 29.89 in 5.0 mi NW 1.2 mph - N/A Rain , Thunderstorm Light Thunderstorms and Rain
11:00 AM 80 °F - 77 °F 87% 29.93 in 4 mi South 5.8 mph - - Thunderstorm Thunderstorm
11:00 AM 75.2 °F - 73.4 °F 94% 29.92 in 5.0 mi Calm Calm - N/A Rain Light Rain
11:30 AM 75.2 °F - 73.4 °F 94% 29.89 in 5.0 mi Calm Calm - N/A Rain Rain
12:00 PM 75.2 °F - 75.2 °F 100% 29.89 in 5.0 mi Calm Calm - N/A Rain Light Rain
12:30 PM 77.0 °F - 75.2 °F 94% 29.89 in 5.6 mi Calm Calm - N/A Rain Light Rain
1:00 PM 77.0 °F - 75.2 °F 94% 29.86 in 5.6 mi Calm Calm - N/A Rain Light Rain
1:30 PM 77.0 °F - 75.2 °F 94% 29.86 in 6.2 mi Calm Calm - N/A Rain Light Rain
2:00 PM 77 °F - 76 °F 96% 29.87 in 5 mi ENE 3.5 mph - - Rain Light Rain
2:00 PM 78.8 °F - 75.2 °F 89% 29.83 in 6.2 mi Calm Calm - N/A Rain Light Rain
2:30 PM 80.6 °F 86.2 °F 75.2 °F 84% 29.83 in 6.2 mi NNW 1.2 mph - N/A Rain Light Rain
3:00 PM 80.6 °F 86.2 °F 75.2 °F 84% 29.80 in 6.2 mi NNW 1.2 mph - N/A   Mostly Cloudy
3:30 PM 80.6 °F 86.2 °F 75.2 °F 84% 29.77 in 6.2 mi WNW 2.3 mph - N/A   Mostly Cloudy
4:00 PM 82.4 °F 90.9 °F 77.0 °F 84% 29.77 in 6.2 mi WNW 3.5 mph - N/A   Mostly Cloudy
4:30 PM 82.4 °F 90.9 °F 77.0 °F 84% 29.77 in 6.2 mi NNW 2.3 mph - N/A   Mostly Cloudy
5:00 PM 79 °F - 77 °F 90% 29.80 in 5 mi NNE 1.2 mph - -   Haze
5:00 PM 82.4 °F 90.9 °F 77.0 °F 84% 29.77 in 6.2 mi NNE 4.6 mph - N/A   Mostly Cloudy
5:30 PM 80.6 °F 86.2 °F 75.2 °F 84% 29.77 in 6.2 mi North 5.8 mph - N/A   Mostly Cloudy
6:00 PM 80.6 °F 86.2 °F 75.2 °F 84% 29.80 in 6.2 mi North 4.6 mph - N/A   Mostly Cloudy
6:30 PM 78.8 °F - 75.2 °F 89% 29.80 in 6.2 mi North 5.8 mph - N/A   Mostly Cloudy
7:00 PM 78.8 °F - 75.2 °F 89% 29.83 in 5.0 mi North 4.6 mph - N/A Rain Light Rain
7:30 PM 77.0 °F - 75.2 °F 94% 29.83 in 5.0 mi North 3.5 mph - N/A Rain Light Rain
8:00 PM 79 °F - 76 °F 89% 29.88 in 6 mi North 1.2 mph - - Rain Light Rain
8:00 PM 77.0 °F - 75.2 °F 94% 29.86 in 5.6 mi North 4.6 mph - N/A Rain Light Rain
8:30 PM 77.0 °F - 75.2 °F 94% 29.86 in 5.6 mi NNE 3.5 mph - N/A Rain Light Rain
9:00 PM 77.0 °F - 73.4 °F 89% 29.86 in 5.6 mi North 3.5 mph - N/A   Mostly Cloudy
9:30 PM 77.0 °F - 73.4 °F 89% 29.86 in 5.6 mi North 3.5 mph - N/A   Mostly Cloudy
10:00 PM 77.0 °F - 73.4 °F 89% 29.89 in 5.6 mi North 3.5 mph - N/A   Mostly Cloudy
10:30 PM 77.0 °F - 73.4 °F 89% 29.89 in 5.6 mi North 4.6 mph - N/A   Mostly Cloudy
11:00 PM 77 °F - 76 °F 96% 29.92 in 5 mi Calm Calm - -   Mist
11:00 PM 77.0 °F - 73.4 °F 89% 29.89 in 6.2 mi NNW 3.5 mph - N/A   Mostly Cloudy
11:30 PM 77.0 °F - 75.2 °F 94% 29.89 in 6.2 mi North 2.3 mph - N/A   Mostly Cloudy